www.pogodaiklimat.ru

Погода и климат >> Архив погоды >> Япония >> Суццу


ПОГОДА в Суццу

  • Прогноз погоды в Суццу
  • Монитор погоды в Суццу

АРХИВ ПОГОДЫ в Суццу

Время (UTC), дата Ветер
(напр.,м/с)
 
Видим.   Явления Облачность Т
(С)
Тd
(С)
f
(%)
Тe
(С)
Тes
(С)
Комфортность P
(гПа)
Po
(гПа)
Тmin
(С)
Tmax
(С)
R
(мм)
R24
(мм)
S
(см)
10 11.07 ЮВ 9 20 км н/о +16.6 +12.0 74 +15 +15 1010.8 1006.7
11 11.07 Ю 10 18 км н/о +15.9 +12.7 81 +14 +14 1010.3 1006.1
12 11.07 Ю 10 16 км н/о +15.6 +12.7 83 +13 +13 1010.1 1005.9 +21.2
13 11.07 Ю 11 15 км н/о +15.7 +13.2 85 +13 +13 1009.5 1005.3
14 11.07 Ю 9 15 км н/о +15.9 +13.6 86 +14 +14 1009.5 1005.3
15 11.07 ЮВ 9 12 км н/о +16.3 +14.0 86 +14 +14 1009.2 1005.1
16 11.07 ЮВ 10 13 км н/о +16.5 +14.0 85 +15 +15 1008.6 1004.5
17 11.07 ЮВ 10 17 км н/о +16.8 +14.1 84 +15 +15 1008.0 1003.9
18 11.07 ЮВ 9 18 км н/о +17.0 +14.1 83 +16 +16 1007.7 1003.6
19 11.07 ЮВ 9 18 км н/о +17.2 +13.9 81 +16 +16 1007.3 1003.2
20 11.07 ЮВ 11 18 км н/о +17.2 +14.3 83 +16 +16 1006.9 1002.8
21 11.07 ЮВ 9 18 км слаб. дождь н/о +17.0 +14.5 85 +16 +16 1007.1 1003.0
22 11.07 ЮВ 9 17 км в посл. час дождь н/о +16.9 +14.6 86 +15 +15 1007.1 1003.0
23 11.07 ЮВ 7 13 км слаб. дождь н/о +16.8 +14.8 88 +16 +16 1007.5 1003.4
00 12.07 ЮВ 8 15 км слаб. дождь н/о +16.9 +15.1 89 +16 +16 1006.6 1002.5 +15.5 0.0
01 12.07 ЮВ 6 13 км слаб. дождь н/о +16.6 +15.5 93 +16 +16 1006.3 1002.2
02 12.07 Ю 5 16 км в посл. час дождь н/о +17.3 +15.5 89 +17 +17 1005.5 1001.4
03 12.07 ЮВ 8 16 км в посл. час дождь н/о +17.6 +15.4 87 +17 +17 1004.4 1000.3
04 12.07 ЮВ 10 19 км н/о +18.0 +15.5 85 +17 +17 1003.8 999.7
06 12.07 ЮВ 9 10 км {дождь} н/о +17.6 +15.8 89 +16 +16 1002.9 998.8 0.0
07 12.07 ЮВ 8 7000 м слаб. дождь н/о +17.5 +16.4 93 +16 +16 1002.5 998.4
08 12.07 ЮВ 9 10 км слаб. дождь н/о +17.5 +16.2 92 +16 +16 1002.3 998.2
09 12.07 Ю 10 11 км слаб. дождь н/о +17.6 +16.5 93 +16 +16 1002.0 997.9
10 12.07 ЮВ 8 11 км слаб. дождь н/о +17.5 +16.4 93 +16 +16 1002.3 998.2
11 12.07 Ю 7 20 км слаб. дождь н/о +17.4 +16.3 93 +16 +16 1002.3 998.2
12 12.07 Ю 8 9000 м в посл. час дождь н/о +17.4 +16.1 92 +16 +16 1002.5 998.4 +18.2 0.5
13 12.07 Ю 8 9000 м дымка н/о +17.7 +16.2 91 +17 +17 1002.0 997.9
14 12.07 Ю 9 9000 м слаб. дождь н/о +17.4 +16.1 92 +16 +16 1000.8 996.7
15 12.07 Ю 8 6000 м дождь н/о +17.1 +16.1 94 +16 +16 1001.1 997.0
16 12.07 Ю 9 20 км в посл. час дождь н/о +17.2 +16.1 93 +16 +16 1000.9 996.8
17 12.07 Ю 6 20 км н/о +17.2 +16.1 93 +16 +16 1000.9 996.8
18 12.07 Ю 5 6000 м дымка {дождь} н/о +17.1 +16.3 95 +16 +16 1000.8 996.7 8
19 12.07 Ю 5 6000 м слаб. дождь н/о +17.1 +16.1 94 +16 +16 1000.8 996.7
20 12.07 Ю 6 19 км в посл. час дождь н/о +17.4 +16.1 92 +17 +17 1000.9 996.8
21 12.07 Ю 6 13 км {дождь} н/о +18.0 +16.5 91 +18 +18 1001.0 996.9
22 12.07 Ю 5 20 км в посл. час дождь н/о +18.4 +16.7 90 +19 +19 1001.8 997.7
23 12.07 Ю 5 20 км н/о +18.4 +16.9 91 +19 +19 1001.9 997.8
00 13.07 Ю 7 18 км {дождь} н/о +19.6 +17.4 87 +21 +21 комфорт 1001.8 997.7 +17.1 8
01 13.07 Ю 4 20 км н/о +19.5 +17.3 87 +22 +22 комфорт 1002.2 998.1
02 13.07 Ю 4 8000 м слаб. дождь н/о +19.5 +17.5 88 +22 +22 комфорт 1002.2 998.1
03 13.07 ЮВ 5 20 км слаб. дождь н/о +20.1 +17.7 86 +23 +23 комфорт 1002.3 998.2
04 13.07 Ю 6 20 км в посл. час дождь н/о +20.5 +17.5 83 +24 +24 комфорт 1002.4 998.3
05 13.07 ЮВ 5 20 км н/о +20.9 +17.7 82 +25 +25 комфорт 1002.2 998.2
06 13.07 ЮВ 5 20 км в посл. час дождь н/о +19.7 +17.3 86 +22 +22 комфорт 1002.4 998.3 0.0
07 13.07 Ю 5 12 км слаб. дождь н/о +18.7 +17.7 94 +20 +20 1002.5 998.4
08 13.07 Ю 6 20 км слаб. дождь н/о +18.7 +17.4 92 +19 +19 1002.4 998.3
09 13.07 Ю 5 8000 м слаб. дождь н/о +18.2 +17.2 94 +18 +18 1002.8 998.7
10 13.07 Ю 6 10 км слаб. дождь н/о +18.0 +17.2 95 +18 +18 1003.1 999.0
11 13.07 Ю 5 10 км слаб. дождь н/о +17.9 +17.1 95 +17 +17 1003.7 999.6
12 13.07 Ю 6 6000 м слаб. дождь н/о +17.7 +17.1 96 +17 +17 1004.3 1000.2 +22.0 3
13 13.07 Ю 6 9000 м слаб. дождь н/о +17.7 +17.1 96 +17 +17 1004.0 999.9
14 13.07 Ю 6 8000 м слаб. дождь н/о +17.9 +17.3 96 +17 +17 1004.2 1000.1
15 13.07 Ю 6 7000 м слаб. дождь н/о +17.9 +17.3 96 +17 +17 1004.4 1000.3
16 13.07 Ю 5 15 км слаб. дождь н/о +17.9 +17.1 95 +17 +17 1004.4 1000.3
17 13.07 Ю 6 20 км слаб. дождь н/о +17.8 +17.2 96 +17 +17 1004.0 999.9
18 13.07 Ю 6 20 км в посл. час дождь н/о +18.1 +17.1 94 +18 +18 1004.0 999.9 2
19 13.07 Ю 6 11 км н/о +17.9 +17.1 95 +17 +17 1004.4 1000.3
20 13.07 Ю 6 11 км н/о +17.6 +16.8 95 +17 +17 1004.4 1000.3
21 13.07 Ю 7 12 км н/о +17.8 +17.0 95 +17 +17 1004.3 1000.2
22 13.07 ЮВ 7 5000 м дымка н/о +17.7 +17.2 97 +17 +17 1004.4 1000.3
23 13.07 ЮВ 7 9000 м дымка н/о +17.9 +17.3 96 +17 +17 1004.4 1000.3
00 14.07 ЮВ 7 20 км слаб. дождь н/о +18.8 +17.7 93 +19 +19 1004.8 1000.7 +17.6 2
01 14.07 ЮВ 7 12 км в посл. час дождь н/о +19.2 +17.5 90 +20 +20 1004.9 1000.8
02 14.07 ЮВ 7 16 км слаб. дождь н/о +18.8 +17.7 93 +19 +19 1005.2 1001.1
03 14.07 ЮВ 6 20 км в посл. час дождь н/о +19.5 +17.6 89 +21 +21 комфорт 1005.2 1001.1
04 14.07 Ю 7 20 км н/о +19.3 +17.5 89 +21 +21 комфорт 1005.3 1001.2
05 14.07 Ю 7 15 км н/о +18.5 +17.2 92 +19 +19 1005.4 1001.3
06 14.07 Ю 7 14 км слаб. дождь н/о +18.4 +17.3 93 +18 +18 1005.2 1001.1 0.0
07 14.07 ЮВ 6 20 км н/о +19.3 +17.3 88 +21 +21 комфорт 1005.4 1001.3
08 14.07 Ю 7 20 км н/о +18.8 +17.1 90 +19 +19 1005.6 1001.5
09 14.07 ЮВ 7 20 км н/о +18.4 +16.9 91 +18 +18 1006.0 1001.9
10 14.07 ЮВ 8 20 км слаб. дождь н/о +18.3 +17.0 92 +18 +18 1006.4 1002.3
11 14.07 Ю 9 15 км в посл. час дождь н/о +18.2 +16.7 91 +18 +18 1006.9 1002.8
12 14.07 ЮВ 8 13 км {дождь} н/о +17.7 +16.7 94 +17 +17 1007.3 1003.2 +19.8 0.0
13 14.07 ЮВ 8 13 км н/о +17.6 +16.5 93 +17 +17 1007.5 1003.4
14 14.07 ЮВ 7 13 км н/о +17.4 +16.3 93 +16 +16 1007.9 1003.8
15 14.07 ЮВ 7 20 км н/о +17.6 +16.1 91 +17 +17 1008.0 1003.9
16 14.07 ЮВ 7 16 км н/о +17.4 +15.9 91 +16 +16 1008.1 1004.0
17 14.07 ЮВ 8 16 км н/о +17.4 +15.8 90 +16 +16 1008.1 1004.0
18 14.07 ЮВ 8 15 км н/о +17.4 +15.6 89 +16 +16 1008.4 1004.3
19 14.07 ЮВ 8 15 км н/о +17.3 +15.3 88 +16 +16 1008.7 1004.6
20 14.07 ЮВ 7 13 км н/о +17.5 +15.5 88 +17 +17 1009.3 1005.2
21 14.07 ЮВ 6 13 км н/о +17.7 +15.7 88 +17 +17 1009.8 1005.7
22 14.07 ЮВ 6 14 км н/о +18.4 +16.0 86 +18 +18 1010.0 1005.9
23 14.07 ЮВ 8 16 км н/о +19.4 +16.3 82 +21 +21 комфорт 1010.1 1006.0
00 15.07 ЮВ 8 20 км н/о +20.7 +15.7 73 +23 +23 комфорт 1010.4 1006.3 +17.3
01 15.07 ЮВ 8 20 км н/о +21.8 +16.3 71 +26 +26 душно 1010.6 1006.5
02 15.07 ЮВ 7 20 км н/о +22.5 +15.4 64 +26 +26 жарко 1010.9 1006.8
03 15.07 ЮВ 7 20 км н/о +22.8 +15.9 65 +27 +27 душно 1011.1 1007.0
04 15.07 ЮВ 7 20 км н/о +22.3 +16.1 68 +26 +26 жарко 1011.2 1007.1
05 15.07 ЮВ 7 20 км н/о +22.1 +16.2 69 +26 +26 душно 1011.7 1007.6
06 15.07 ЮВ 7 20 км н/о +21.5 +14.2 63 +24 +24 комфорт 1012.0 1007.9
07 15.07 ЮВ 7 20 км н/о +20.9 +12.9 60 +23 +23 комфорт 1012.2 1008.1
08 15.07 ЮВ 6 20 км н/о +20.5 +12.5 60 +22 +22 комфорт 1012.1 1008.0
09 15.07 Ю 6 20 км н/о +19.3 +12.3 64 +20 +20 1012.3 1008.2
10 15.07 Ю 6 20 км н/о +18.1 +11.9 67 +18 +18 1012.7 1008.6
11 15.07 Ю 7 20 км н/о +17.4 +13.1 76 +16 +16 1013.4 1009.3
12 15.07 ЮВ 7 18 км н/о +17.2 +13.3 78 +16 +16 1013.8 1009.6 +23.5
13 15.07 ЮВ 7 14 км н/о +16.7 +13.6 82 +15 +15 1013.9 1009.7
14 15.07 ЮВ 9 12 км н/о +16.3 +14.0 86 +15 +15 1014.0 1009.8
15 15.07 ЮВ 8 12 км н/о +16.4 +13.9 85 +15 +15 1014.0 1009.8
16 15.07 ЮВ 8 12 км н/о +16.4 +13.7 84 +15 +15 1014.0 1009.8
17 15.07 ЮВ 8 12 км н/о +16.1 +13.8 86 +14 +14 1013.9 1009.7
18 15.07 ЮВ 8 11 км н/о +15.7 +13.7 88 +14 +14 1014.0 1009.8
19 15.07 ЮВ 7 14 км н/о +15.7 +13.4 86 +14 +14 1014.0 1009.8
20 15.07 ЮВ 7 13 км н/о +16.0 +13.7 86 +14 +14 1014.3 1010.1
21 15.07 ЮВ 8 16 км н/о +17.1 +14.0 82 +16 +16 1014.6 1010.4
22 15.07 ЮВ 7 17 км н/о +18.1 +14.6 80 +17 +17 1014.8 1010.7
23 15.07 ЮВ 9 16 км н/о +18.5 +14.6 78 +18 +18 1015.1 1011.0
00 16.07 ЮВ 9 17 км н/о +19.3 +15.0 76 +20 +20 1015.2 1011.1 +15.6
01 16.07 ЮВ 9 18 км н/о +20.0 +15.5 75 +22 +22 комфорт 1015.1 1011.0
02 16.07 ЮВ 9 20 км н/о +20.6 +16.2 76 +23 +23 комфорт 1015.1 1011.0
03 16.07 ЮВ 8 18 км н/о +20.6 +16.0 75 +23 +23 комфорт 1014.8 1010.7
04 16.07 Ю 8 17 км н/о +20.3 +15.7 75 +23 +23 комфорт 1014.6 1010.5
05 16.07 ЮВ 7 20 км н/о +20.4 +16.2 77 +23 +23 комфорт 1014.3 1010.2
06 16.07 Ю 8 12 км н/о +19.5 +16.4 82 +21 +21 комфорт 1014.3 1010.2
07 16.07 Ю 8 12 км н/о +18.8 +16.1 84 +19 +19 1014.3 1010.2
08 16.07 Ю 8 11 км н/о +18.1 +16.1 88 +17 +17 1014.3 1010.2
09 16.07 ЮВ 7 5000 м дымка н/о +17.7 +16.4 92 +17 +17 1014.3 1010.2
10 16.07 ЮВ 6 9000 м дымка н/о +17.2 +16.1 93 +16 +16 1014.1 1009.9
11 16.07 ЮВ 7 10 км н/о +17.1 +16.3 95 +16 +16 1014.5 1010.3
12 16.07 ЮВ 7 7000 м дымка н/о +17.1 +16.3 95 +16 +16 1014.7 1010.5 +21.6
13 16.07 ЮВ 7 8000 м дымка н/о +17.1 +16.3 95 +16 +16 1014.5 1010.3
14 16.07 ЮВ 8 4300 м дымка н/о +16.9 +16.4 97 +16 +16 1014.5 1010.3
15 16.07 ЮВ 7 5000 м в посл. час дождь н/о +16.9 +16.4 97 +16 +16 1014.1 1009.9
16 16.07 ЮВ 7 5000 м дымка н/о +16.9 +16.3 96 +16 +16 1013.7 1009.5
17 16.07 Ю 7 20 км н/о +17.0 +16.2 95 +16 +16 1013.7 1009.5
18 16.07 ЮВ 6 20 км {дождь} н/о +17.1 +16.1 94 +16 +16 1014.0 1009.8 0.0
19 16.07 Ю 7 20 км н/о +17.2 +16.2 94 +16 +16 1013.9 1009.7
20 16.07 Ю 6 20 км н/о +17.8 +16.5 92 +17 +17 1014.0 1009.9
21 16.07 ЮВ 7 20 км н/о +18.3 +16.6 90 +18 +18 1014.0 1009.9
22 16.07 ЮВ 6 20 км н/о +19.4 +17.0 86 +21 +21 комфорт 1014.1 1010.0
23 16.07 Ю 8 20 км н/о +20.0 +17.0 83 +22 +22 комфорт 1013.8 1009.7
00 17.07 Ю 7 20 км н/о +19.7 +17.1 85 +22 +22 комфорт 1013.9 1009.8 +16.9 0.0
01 17.07 ЮВ 8 20 км н/о +19.8 +17.2 85 +22 +22 комфорт 1014.0 1009.9
02 17.07 ЮВ 7 20 км н/о +20.3 +17.7 85 +23 +23 комфорт 1013.9 1009.8
03 17.07 Ю 8 20 км н/о +19.8 +17.6 87 +22 +22 комфорт 1013.8 1009.7
04 17.07 ЮВ 6 20 км н/о +21.3 +17.7 80 +25 +25 комфорт 1013.5 1009.4
05 17.07 Ю 7 20 км н/о +19.8 +17.4 86 +22 +22 комфорт 1013.6 1009.5
06 17.07 ЮВ 6 20 км н/о +20.5 +18.1 86 +24 +24 комфорт 1013.4 1009.3
07 17.07 Ю 6 15 км н/о +19.2 +17.7 91 +21 +21 комфорт 1013.3 1009.2
08 17.07 Ю 5 20 км н/о +19.7 +17.5 87 +22 +22 комфорт 1013.3 1009.2
09 17.07 ЮВ 6 20 км н/о +19.4 +17.4 88 +21 +21 комфорт 1013.3 1009.2
11 17.07 Ю 6 20 км н/о +18.4 +17.3 93 +19 +19 1013.5 1009.4
12 17.07 Ю 6 20 км н/о +18.3 +17.3 94 +18 +18 1013.5 1009.4 +21.9
13 17.07 Ю 6 17 км н/о +18.3 +17.3 94 +18 +18 1013.6 1009.5
14 17.07 Ю 6 13 км н/о +18.2 +17.2 94 +18 +18 1013.6 1009.5
15 17.07 Ю 5 7000 м дымка н/о +18.1 +17.5 96 +18 +18 1013.5 1009.4
16 17.07 Ю 6 11 км н/о +18.1 +17.5 96 +18 +18 1013.3 1009.2
17 17.07 ЮВ 5 20 км н/о +18.1 +17.3 95 +18 +18 1013.1 1009.0
18 17.07 Ю 6 18 км н/о +18.2 +17.4 95 +18 +18 1013.1 1009.0
19 17.07 Ю 5 14 км н/о +18.2 +17.4 95 +18 +18 1012.9 1008.8
20 17.07 ЮВ 5 20 км н/о +18.2 +17.2 94 +18 +18 1013.1 1009.0
21 17.07 ЮВ 4 20 км н/о +18.3 +17.3 94 +19 +19 1013.4 1009.3
22 17.07 Ю 4 20 км н/о +19.1 +17.6 91 +21 +21 комфорт 1013.2 1009.1
23 17.07 ЮВ 3 20 км н/о +20.1 +17.9 87 +23 +23 комфорт 1013.2 1009.1
00 18.07 ЮВ 5 20 км н/о +21.5 +18.3 82 +26 +26 душно 1013.2 1009.1 +18.0
01 18.07 ЮВ 5 20 км н/о +22.4 +18.2 77 +28 +28 душно 1013.0 1008.9
02 18.07 Ю 5 20 км н/о +23.8 +18.9 74 +29 +29 душно 1012.3 1008.3
03 18.07 ЮВ 5 20 км н/о +23.8 +19.1 75 +29 +29 душно 1012.3 1008.3
04 18.07 ЮВ 5 20 км н/о +23.5 +18.8 75 +28 +28 душно 1012.2 1008.2
06 18.07 Ю 4 20 км н/о +23.5 +18.4 73 +28 +28 душно 1011.4 1007.4
07 18.07 ЮВ 5 20 км н/о +23.0 +18.6 76 +29 +29 очень
душно
1011.9 1007.8
08 18.07 В 3 20 км н/о +22.3 +18.7 80 +28 +28 душно 1011.5 1007.4

 

Местоположение метеостанции Суццу (Япония): широта 42.80 долгота 140.21 высота над уровнем моря 38 м.

В архиве по умолчанию представлена погода в Суццу за последнюю неделю. Архивные данные за месяц целиком и за предыдущие месяцы, начиная с января 2011 года, Вы можете получить, выбрав интересующий диапазон дат из раскрывающегося списка и нажав кнопку "Ввод!".


*Определитесь, кто Вы:
робот инопланетянин человек

Внимание! Время в таблицах - всемирное. Для получения местного времени необходимо прибавить поправку, которая равна 9 ч.

Смотрите также архив погоды в соседних городах и на ближайших метеорологических станциях:

Погода в Куттяне (Япония) (45 км)
Погода в Отару (Япония) (78 км)
Погода в Муроране (Япония) (83 км)
Погода в Саппоро (Япония) (96 км)
Погода в Эсаси (Япония) (104 км)
Погода в Томакомае (Япония) (111 км)
Погода в Хакодате (Япония) (118 км)
Погода в Ивамидзаве (Япония) (136 км)
Погода в Румои (Япония) (172 км)
Погода в Муцу (Япония) (188 км)

Пояснения к столбцам:

Ветер - указаны скорость ветра в м/с - средняя за 10 мин, порывы в срок и между сроками (в фигурных скобках) и направление, откуда дует ветер: С - северный, СВ - северо-восточный, В - восточный, ЮВ - юго-восточный, Ю - южный, ЮЗ - юго-западный, З - западный, СЗ - северо-западный.
Видимость - горизонтальная дальность видимости в метрах или километрах. При видимости от 1 до 10 км при отсутствии осадков обычно наблюдается дымка, при ухудшении видимости до 1 км и менее - туман. В сухую погоду видимость может ухудшаться дымом, пылью или мглою.
Явления - указаны атмосферные явления, наблюдавшиеся в срок или в последний час перед сроком; фигурными скобками обозначены явления, наблюдавшиеся между сроками (за 1-3 часа до срока); квадратными скобками обозначены град или гололедные отложения с указанием их диаметра в мм.
Облачность - указаны через наклонную черту общая и нижняя облачность в баллах и высота нижней границы облаков в метрах; квадратными скобками обозначены формы облаков: Ci - перистые, Cs - перисто-слоистые, Cc - перисто-кучевые, Ac - высококучевые, As - высокослоистые, Sc - слоисто-кучевые, Ns - слоисто-дождевые, Cu - кучевые, Cb - кучево-дождевые. Подробнее классификацию облаков см. в Атласе облаков (PDF).
T - Температура воздуха - температура, измеренная на высоте 2 м над землей.
Td - Температура точки росы - температура, при понижении до которой содержащийся в воздухе водяной пар достигнет насыщения.
f - Относительная влажность воздуха - влажноcть воздуха, измеренная на высоте 2 м над землей.
Te - Эффективная температура - температура, которую ощущает одетый по сезону человек в тени. Характеристика душности погоды. При расчете учитывается влияние влажности воздуха и скорости ветра на теплоощущения человека.
Tes - Эффективная температура на солнце - температура, которую ощущает человек, с поправкой на солнечный нагрев. Характеристика знойности погоды. Зависит от высоты солнца над горизонтом, облачности и скорости ветра. Ночью, в пасмурную погоду, а также при ветре 12 м/с и более поправка равна нулю.
P - Атмосферное давление - приведенное к уровню моря атмосферное давление.
Po - Атмосферное давление - измеренное на уровне метеостанции атмосферное давление.
Tmin - Минимальная температура - минимум температуры воздуха на высоте 2 м над землей.
Tmax - Максимальная температура - максимум температуры воздуха на высоте 2 м над землей.
R - Количество осадков - Количество выпавших осадков за период времени, мм. При наведении курсора мыши на число - период времени, за который выпало указанное количество осадков.
R24 - Количество осадков - Количество выпавших осадков за 24 часа, мм.
S - Снежный покров - Высота снежного покрова, см. При наведении курсора мыши на число - состояние снежного покрова и степень покрытия местности в баллах.